| time (UTC) | temp F | wind direction | speed knots | gust knots | rain 1hr in | rain 24hr in | rain mn in | humidity % | barometer mb |
| 20260831043035 | 67 | 90 | 0.0 | 0.9 | 0.00 | 0.00 | 0.00 | 76 | 1009.4 |
| 20260831041524 | 65 | 90 | 0.0 | 0.9 | 0.00 | 0.00 | 0.00 | 77 | 1009.3 |
| 20260831040023 | 65 | 90 | 0.0 | 0.9 | 0.00 | 0.00 | 0.00 | 77 | 1009.3 |
| 20260831034522 | 65 | 90 | 0.0 | 0.9 | 0.00 | 0.01 | 0.00 | 75 | 1009.2 |
| 20260831033021 | 65 | 90 | 0.0 | 0.9 | 0.00 | 0.01 | 0.00 | 74 | 1009.2 |
| 20260831031520 | 65 | 89 | 0.0 | 0.9 | 0.00 | 0.01 | 0.00 | 72 | 1009.1 |
| 20260831030019 | 65 | 89 | 0.0 | 1.7 | 0.00 | 0.01 | 0.00 | 69 | 1009.1 |
| 20260831024524 | 65 | 88 | 0.0 | 1.7 | 0.00 | 0.07 | 0.00 | 69 | 1009.1 |
| 20260831023117 | 65 | 92 | 0.0 | 2.6 | 0.00 | 0.07 | 0.00 | 70 | 1009.1 |
| 20260831021517 | 65 | 105 | 0.0 | 1.7 | 0.00 | 0.07 | 0.00 | 70 | 1009.1 |
| 20260831020017 | 65 | 108 | 0.0 | 0.9 | 0.00 | 0.07 | 0.00 | 69 | 1009.2 |
| 20260831014516 | 65 | 108 | 0.0 | 0.9 | 0.00 | 0.07 | 0.00 | 69 | 1009.1 |
| 20260831013034 | 65 | 108 | 0.0 | 0.9 | 0.00 | 0.07 | 0.00 | 69 | 1009.2 |
| 20260831011519 | 65 | 110 | 0.0 | 0.9 | 0.00 | 0.07 | 0.00 | 69 | 1009.1 |
| 20260831010018 | 64 | 111 | 0.0 | 0.9 | 0.00 | 0.07 | 0.00 | 69 | 1009.1 |
| 20260831004514 | 64 | 111 | 0.0 | 0.9 | 0.00 | 0.08 | 0.00 | 70 | 1009.1 |
| 20260831003020 | 64 | 111 | 0.0 | 0.9 | 0.00 | 0.08 | 0.00 | 71 | 1009.0 |
| 20260831001521 | 64 | 112 | 0.0 | 1.7 | 0.00 | 0.08 | 0.00 | 72 | 1009.1 |
| 20260831000012 | 64 | 115 | 0.0 | 0.9 | 0.00 | 0.08 | 0.00 | 74 | 1009.0 |
| 20260830234510 | 64 | 115 | 0.0 | 0.0 | 0.00 | 0.08 | 0.00 | 74 | 1008.9 |
| 20260830233011 | 64 | 115 | 0.0 | 0.0 | 0.00 | 0.08 | 0.00 | 73 | 1008.8 |
| 20260830231508 | 65 | 115 | 0.0 | 0.0 | 0.00 | 0.08 | 0.00 | 72 | 1008.9 |
| 20260830230007 | 65 | 115 | 0.0 | 0.9 | 0.00 | 0.08 | 0.00 | 71 | 1008.9 |
| 20260830224508 | 65 | 115 | 0.0 | 0.9 | 0.00 | 0.08 | 0.00 | 71 | 1008.9 |
| 20260830223003 | 66 | 115 | 0.0 | 0.0 | 0.00 | 0.08 | 0.00 | 70 | 1008.9 |
| 20260830221503 | 66 | 115 | 0.0 | 0.0 | 0.00 | 0.08 | 0.00 | 70 | 1009.0 |
| 20260830220002 | 66 | 115 | 0.0 | 0.0 | 0.00 | 0.08 | 0.00 | 71 | 1009.0 |
| 20260830214601 | 66 | 115 | 0.0 | 0.0 | 0.00 | 0.08 | 0.00 | 71 | 1009.0 |
| 20260830213058 | 66 | 115 | 0.0 | 0.0 | 0.00 | 0.08 | 0.00 | 72 | 1009.2 |
| 20260830211557 | 66 | 115 | 0.0 | 0.0 | 0.00 | 0.08 | 0.00 | 72 | 1009.2 |
| 20260830210109 | 66 | 115 | 0.0 | 0.9 | 0.00 | 0.08 | 0.00 | 75 | 1009.2 |
| 20260830204606 | 65 | 115 | 0.0 | 0.9 | 0.00 | 0.08 | 0.08 | 76 | 1009.2 |
| 20260830203051 | 65 | 115 | 0.0 | 0.0 | 0.00 | 0.08 | 0.08 | 77 | 1009.0 |
| 20260830201555 | 66 | 115 | 0.0 | 0.0 | 0.00 | 0.08 | 0.08 | 78 | 1008.9 |
| 20260830200105 | 66 | 115 | 0.0 | 0.9 | 0.00 | 0.08 | 0.08 | 77 | 1008.9 |
| 20260830194613 | 66 | 115 | 0.0 | 0.9 | 0.00 | 0.08 | 0.08 | 77 | 1008.8 |
| 20260830193048 | 66 | 115 | 0.0 | 1.7 | 0.00 | 0.08 | 0.08 | 77 | 1008.8 |
| 20260830191548 | 66 | 119 | 0.0 | 1.7 | 0.00 | 0.08 | 0.08 | 77 | 1008.7 |
| 20260830190048 | 67 | 125 | 0.0 | 1.7 | 0.00 | 0.08 | 0.08 | 77 | 1008.8 |
| 20260830184547 | 67 | 143 | 0.0 | 0.9 | 0.00 | 0.10 | 0.08 | 77 | 1008.8 |
| 20260830183047 | 67 | 230 | 0.0 | 0.9 | 0.00 | 0.10 | 0.08 | 77 | 1008.9 |
| 20260830181546 | 67 | 230 | 0.0 | 0.0 | 0.00 | 0.10 | 0.08 | 76 | 1008.9 |
| 20260830180045 | 68 | 230 | 0.0 | 0.9 | 0.00 | 0.10 | 0.08 | 75 | 1008.8 |
| 20260830174549 | 68 | 231 | 0.0 | 0.9 | 0.00 | 0.10 | 0.08 | 75 | 1008.8 |
| 20260830173101 | 68 | 232 | 0.0 | 0.0 | 0.00 | 0.10 | 0.08 | 74 | 1008.7 |
| 20260830171543 | 69 | 232 | 0.0 | 0.0 | 0.00 | 0.10 | 0.08 | 73 | 1008.4 |
| 20260830170050 | 69 | 232 | 0.0 | 0.0 | 0.00 | 0.10 | 0.08 | 72 | 1008.4 |
| 20260830164546 | 69 | 232 | 0.0 | 0.0 | 0.00 | 0.10 | 0.08 | 71 | 1008.2 |
| 20260830163049 | 70 | 232 | 0.0 | 0.9 | 0.00 | 0.10 | 0.08 | 70 | 1008.0 |
| 20260830161559 | 70 | 276 | 0.0 | 1.7 | 0.00 | 0.10 | 0.08 | 69 | 1007.9 |
| 20260830160036 | 71 | 309 | 0.0 | 3.5 | 0.00 | 0.10 | 0.08 | 68 | 1007.9 |
| 20260830154536 | 72 | 260 | 0.0 | 3.5 | 0.00 | 0.10 | 0.08 | 65 | 1007.8 |
| 20260830153045 | 73 | 292 | 0.0 | 5.2 | 0.00 | 0.10 | 0.08 | 63 | 1007.9 |
| 20260830151537 | 74 | 255 | 0.9 | 5.2 | 0.00 | 0.10 | 0.08 | 59 | 1008.0 |
| 20260830150039 | 75 | 218 | 2.6 | 7.0 | 0.00 | 0.10 | 0.08 | 58 | 1008.0 |
| 20260830144533 | 75 | 237 | 0.0 | 4.3 | 0.00 | 0.10 | 0.08 | 54 | 1007.9 |
| 20260830143031 | 75 | 267 | 0.9 | 5.2 | 0.00 | 0.10 | 0.08 | 57 | 1008.0 |
| 20260830141535 | 75 | 217 | 2.6 | 7.0 | 0.00 | 0.10 | 0.08 | 58 | 1008.0 |
| 20260830140030 | 75 | 295 | 1.7 | 8.7 | 0.00 | 0.10 | 0.08 | 58 | 1007.9 |
| 20260830134537 | 75 | 292 | 2.6 | 5.2 | 0.00 | 0.10 | 0.08 | 57 | 1007.9 |
| 20260830133031 | 75 | 232 | 2.6 | 10.4 | 0.00 | 0.10 | 0.08 | 57 | 1007.9 |
| 20260830131539 | 75 | 321 | 0.9 | 7.0 | 0.00 | 0.10 | 0.08 | 55 | 1008.0 |
| 20260830130028 | 75 | 332 | 3.5 | 8.7 | 0.00 | 0.10 | 0.08 | 55 | 1008.0 |
| 20260830124525 | 75 | 255 | 2.6 | 10.4 | 0.00 | 0.10 | 0.08 | 54 | 1007.9 |
| 20260830123024 | 75 | 207 | 4.3 | 8.7 | 0.00 | 0.10 | 0.08 | 56 | 1007.7 |
| 20260830121524 | 75 | 266 | 2.6 | 7.8 | 0.00 | 0.10 | 0.08 | 58 | 1007.7 |
| 20260830120021 | 74 | 326 | 5.2 | 9.6 | 0.00 | 0.10 | 0.08 | 61 | 1007.7 |
| 20260830114521 | 75 | 265 | 2.6 | 10.4 | 0.00 | 0.10 | 0.08 | 63 | 1007.5 |
| 20260830113019 | 76 | 307 | 1.7 | 8.7 | 0.00 | 0.10 | 0.08 | 60 | 1007.5 |
| 20260830111551 | 75 | 267 | 1.7 | 9.6 | 0.00 | 0.10 | 0.08 | 58 | 1007.6 |
| 20260830110044 | 75 | 296 | 1.7 | 9.6 | 0.00 | 0.10 | 0.08 | 63 | 1007.5 |
| 20260830104541 | 74 | 213 | 1.7 | 7.8 | 0.00 | 0.10 | 0.08 | 62 | 1007.5 |
| 20260830103040 | 73 | 334 | 2.6 | 10.4 | 0.00 | 0.10 | 0.08 | 64 | 1007.3 |
| 20260830101539 | 74 | 184 | 3.5 | 8.7 | 0.00 | 0.10 | 0.08 | 64 | 1007.3 |
| 20260830100039 | 73 | 264 | 2.6 | 10.4 | 0.00 | 0.10 | 0.08 | 65 | 1007.3 |
| 20260830094538 | 73 | 238 | 2.6 | 8.7 | 0.00 | 0.10 | 0.08 | 68 | 1007.4 |
| 20260830093034 | 73 | 261 | 3.5 | 10.4 | 0.00 | 0.10 | 0.08 | 70 | 1007.5 |
| 20260830091543 | 73 | 263 | 2.6 | 6.1 | 0.00 | 0.10 | 0.08 | 69 | 1007.5 |
| 20260830090031 | 72 | 189 | 0.9 | 4.3 | 0.00 | 0.10 | 0.08 | 67 | 1007.4 |
| 20260830084528 | 72 | 314 | 5.2 | 9.6 | 0.00 | 0.10 | 0.08 | 69 | 1007.5 |
| 20260830083027 | 72 | 316 | 0.9 | 3.5 | 0.00 | 0.10 | 0.08 | 73 | 1007.5 |
| 20260830081529 | 71 | 328 | 0.9 | 7.0 | 0.00 | 0.10 | 0.08 | 73 | 1007.5 |
| 20260830080023 | 70 | 178 | 2.6 | 7.0 | 0.00 | 0.10 | 0.08 | 76 | 1007.4 |
| 20260830074524 | 70 | 209 | 0.0 | 4.3 | 0.00 | 0.10 | 0.08 | 76 | 1007.3 |
| 20260830073019 | 69 | 267 | 0.0 | 7.0 | 0.00 | 0.10 | 0.08 | 77 | 1007.2 |
| 20260830071515 | 68 | 255 | 0.9 | 5.2 | 0.00 | 0.10 | 0.08 | 81 | 1007.1 |
| 20260830070012 | 67 | 227 | 0.9 | 7.0 | 0.00 | 0.10 | 0.08 | 85 | 1006.9 |
| 20260830064507 | 66 | 335 | 0.0 | 5.2 | 0.00 | 0.10 | 0.08 | 89 | 1006.8 |
| 20260830063004 | 66 | 324 | 2.6 | 6.1 | 0.00 | 0.10 | 0.08 | 91 | 1006.8 |
| 20260830061625 | 65 | 250 | 0.9 | 3.5 | 0.00 | 0.10 | 0.08 | 93 | 1006.8 |
| 20260830060058 | 64 | 304 | 0.0 | 3.5 | 0.00 | 0.10 | 0.08 | 94 | 1006.7 |
| 20260830054555 | 64 | 315 | 0.0 | 1.7 | 0.00 | 0.10 | 0.08 | 95 | 1006.5 |
| 20260830053053 | 63 | 289 | 0.0 | 0.0 | 0.00 | 0.10 | 0.08 | 95 | 1006.3 |
| 20260830051552 | 63 | 289 | 0.0 | 0.9 | 0.00 | 0.10 | 0.08 | 95 | 1006.2 |
| 20260830050052 | 62 | 290 | 0.0 | 0.9 | 0.00 | 0.10 | 0.08 | 95 | 1006.1 |
| 20260830044609 | 62 | 290 | 0.0 | 1.7 | 0.00 | 0.10 | 0.08 | 95 | 1006.1 |